BAW902 EGLL-EDDF

Flight info

Callsign BAW902
Flight time 1h 6m
Altitude 35000
Route BPK Q295 MATCH DCT REDFA DCT TACHA DCT NOLRU DCT DIXAT DIXAT1A
Aircraft A388/J-SADE2E3FGHIJ3J4J5M1RWXY/LB1D1

Departure

Time 2026-05-07 08:02
Airport London Heathrow Airport (EGLL)

Arrival

Time 2026-05-07 09:09
Airport Frankfurt Main Airport (EDDF)
Time Latitude Longitude Altitude Speed Heading
2026-05-07 07:42 51.47221 -0.47733 95 ft 0 kts 89°
2026-05-07 07:53 51.47221 -0.47747 95 ft 4 kts 89°
2026-05-07 07:53 51.47220 -0.47789 93 ft 4 kts 89°
2026-05-07 07:53 51.47221 -0.47824 95 ft 4 kts 97°
2026-05-07 07:54 51.47227 -0.47857 95 ft 4 kts 128°
2026-05-07 07:54 51.47240 -0.47870 93 ft 4 kts 173°
2026-05-07 07:54 51.47264 -0.47871 92 ft 4 kts 179°
2026-05-07 07:54 51.47283 -0.47871 91 ft 1 kts 179°
2026-05-07 07:57 51.47277 -0.47871 91 ft 4 kts 180°
2026-05-07 07:57 51.47220 -0.47871 93 ft 12 kts 179°
2026-05-07 07:57 51.47116 -0.47870 91 ft 16 kts 180°
2026-05-07 07:58 51.46988 -0.47870 92 ft 20 kts 180°
2026-05-07 07:58 51.46866 -0.47868 91 ft 16 kts 180°
2026-05-07 07:58 51.46743 -0.47868 91 ft 18 kts 180°
2026-05-07 07:58 51.46702 -0.47867 92 ft 7 kts 180°
2026-05-07 07:59 51.46664 -0.47904 95 ft 8 kts 243°
2026-05-07 07:59 51.46656 -0.48015 93 ft 12 kts 270°
2026-05-07 07:59 51.46653 -0.48177 94 ft 17 kts 269°
2026-05-07 07:59 51.46653 -0.48344 93 ft 9 kts 270°
2026-05-07 08:00 51.46631 -0.48447 96 ft 9 kts 211°
2026-05-07 08:00 51.46617 -0.48458 93 ft 4 kts 197°
2026-05-07 08:00 51.46571 -0.48465 95 ft 9 kts 182°
2026-05-07 08:00 51.46502 -0.48443 94 ft 11 kts 140°
2026-05-07 08:01 51.46480 -0.48329 93 ft 12 kts 90°
2026-05-07 08:01 51.46479 -0.48211 93 ft 12 kts 90°
2026-05-07 08:01 51.46479 -0.48171 93 ft 6 kts 90°
2026-05-07 08:01 51.46481 -0.47642 93 ft 92 kts 90°
2026-05-07 08:02 51.46486 -0.46250 96 ft 152 kts 90°
2026-05-07 08:02 51.46496 -0.44444 475 ft 162 kts 91°
2026-05-07 08:02 51.46514 -0.42653 1090 ft 164 kts 91°
2026-05-07 08:02 51.46685 -0.40819 1550 ft 172 kts 66°
2026-05-07 08:03 51.47334 -0.39189 1994 ft 183 kts 55°
2026-05-07 08:03 51.47882 -0.38094 2074 ft 196 kts 52°
2026-05-07 08:03 51.48818 -0.36314 2359 ft 221 kts 51°
2026-05-07 08:03 51.50234 -0.33614 3094 ft 252 kts 52°
2026-05-07 08:04 51.51361 -0.31363 3887 ft 262 kts 56°
2026-05-07 08:04 51.52020 -0.29743 4519 ft 263 kts 62°
2026-05-07 08:04 51.52773 -0.27057 5439 ft 268 kts 70°
2026-05-07 08:04 51.53456 -0.24235 5874 ft 271 kts 71°
2026-05-07 08:05 51.54108 -0.21399 5987 ft 272 kts 71°
2026-05-07 08:05 51.54917 -0.18666 6002 ft 274 kts 53°
2026-05-07 08:05 51.56384 -0.16720 6001 ft 276 kts 26°
2026-05-07 08:05 51.58252 -0.16021 5999 ft 277 kts
2026-05-07 08:06 51.60751 -0.16065 5888 ft 264 kts 360°
2026-05-07 08:06 51.61976 -0.15986 5885 ft 260 kts
2026-05-07 08:06 51.63769 -0.15612 5889 ft 260 kts
2026-05-07 08:06 51.65535 -0.15001 5880 ft 261 kts 13°
2026-05-07 08:07 51.67270 -0.14261 5880 ft 261 kts 14°
2026-05-07 08:07 51.69020 -0.13459 5899 ft 263 kts 15°
2026-05-07 08:07 51.70793 -0.12630 5968 ft 266 kts 15°
2026-05-07 08:07 51.72576 -0.11796 5974 ft 266 kts 17°
2026-05-07 08:08 51.74200 -0.10371 6028 ft 270 kts 43°
2026-05-07 08:08 51.75213 -0.07840 6424 ft 274 kts 72°
2026-05-07 08:08 51.75501 -0.04796 7367 ft 275 kts 83°
2026-05-07 08:08 51.75727 -0.01702 8291 ft 279 kts 82°
2026-05-07 08:09 51.75978 0.01428 9160 ft 284 kts 82°
2026-05-07 08:09 51.76244 0.04608 10027 ft 289 kts 82°
2026-05-07 08:09 51.76520 0.07868 10620 ft 304 kts 82°
2026-05-07 08:09 51.76815 0.11380 10877 ft 327 kts 82°
2026-05-07 08:10 51.77122 0.15123 11287 ft 342 kts 82°
2026-05-07 08:10 51.77435 0.18957 12016 ft 347 kts 82°
2026-05-07 08:10 51.77751 0.22840 12737 ft 351 kts 82°
2026-05-07 08:10 51.78178 0.26738 13475 ft 354 kts 75°
2026-05-07 08:11 51.78819 0.30597 14176 ft 358 kts 75°
2026-05-07 08:11 51.79452 0.34513 14863 ft 362 kts 75°
2026-05-07 08:11 51.80082 0.38468 15545 ft 366 kts 75°
2026-05-07 08:11 51.80717 0.42465 16214 ft 369 kts 75°
2026-05-07 08:12 51.81357 0.46501 16851 ft 373 kts 75°
2026-05-07 08:12 51.82002 0.50577 17480 ft 376 kts 75°
2026-05-07 08:12 51.82650 0.54683 18090 ft 380 kts 75°
2026-05-07 08:12 51.83305 0.58840 18682 ft 383 kts 75°
2026-05-07 08:13 51.83963 0.63033 19264 ft 386 kts 75°
2026-05-07 08:13 51.84625 0.67257 19813 ft 389 kts 75°
2026-05-07 08:13 51.85291 0.71515 20355 ft 392 kts 75°
2026-05-07 08:13 51.85961 0.75819 20889 ft 395 kts 75°
2026-05-07 08:14 51.86632 0.80134 21428 ft 398 kts 75°
2026-05-07 08:14 51.87301 0.84450 21904 ft 402 kts 75°
2026-05-07 08:14 51.87988 0.88906 22429 ft 404 kts 76°
2026-05-07 08:14 51.88672 0.93336 22900 ft 408 kts 75°
2026-05-07 08:15 51.89351 0.97742 23386 ft 410 kts 76°
2026-05-07 08:15 51.90052 1.02310 23855 ft 413 kts 76°
2026-05-07 08:15 51.90734 1.06771 24304 ft 416 kts 76°
2026-05-07 08:15 51.91432 1.11346 24794 ft 419 kts 76°
2026-05-07 08:16 51.92130 1.15934 25262 ft 421 kts 76°
2026-05-07 08:16 51.92832 1.20562 25749 ft 424 kts 76°
2026-05-07 08:16 51.93544 1.25274 26225 ft 427 kts 76°
2026-05-07 08:16 51.94243 1.29908 26722 ft 430 kts 76°
2026-05-07 08:17 51.94953 1.34632 27242 ft 432 kts 76°
2026-05-07 08:17 51.95665 1.39391 27724 ft 436 kts 76°
2026-05-07 08:17 51.96380 1.44177 28236 ft 439 kts 76°
2026-05-07 08:17 51.97098 1.48991 28765 ft 441 kts 76°
2026-05-07 08:18 51.97817 1.53838 29242 ft 444 kts 76°
2026-05-07 08:18 51.98544 1.58741 29715 ft 448 kts 76°
2026-05-07 08:18 51.99268 1.63646 30217 ft 450 kts 76°
2026-05-07 08:18 51.99999 1.68615 30698 ft 454 kts 76°
2026-05-07 08:19 52.00731 1.73611 31167 ft 457 kts 76°
2026-05-07 08:19 52.01468 1.78651 31632 ft 460 kts 76°
2026-05-07 08:19 52.02199 1.83672 32069 ft 463 kts 76°
2026-05-07 08:19 52.02940 1.88774 32506 ft 466 kts 76°
2026-05-07 08:20 52.03678 1.93871 32932 ft 469 kts 76°
2026-05-07 08:20 52.04430 1.99088 33346 ft 473 kts 76°
2026-05-07 08:20 52.05182 2.04310 33751 ft 475 kts 76°
2026-05-07 08:20 52.05933 2.09559 34173 ft 478 kts 76°
2026-05-07 08:21 52.06688 2.14848 34546 ft 482 kts 76°
2026-05-07 08:21 52.07447 2.20180 34910 ft 486 kts 76°
2026-05-07 08:21 52.08209 2.25554 35074 ft 492 kts 76°
2026-05-07 08:22 52.09729 2.36344 35082 ft 489 kts 76°
2026-05-07 08:22 52.11238 2.47110 35086 ft 489 kts 77°
2026-05-07 08:23 52.13027 2.57804 35084 ft 490 kts 71°
2026-05-07 08:23 52.15149 2.68340 35083 ft 490 kts 71°
2026-05-07 08:24 52.17197 2.78920 35069 ft 489 kts 72°
2026-05-07 08:24 52.19192 2.89508 35062 ft 489 kts 72°
2026-05-07 08:25 52.21173 3.00107 35063 ft 489 kts 72°
2026-05-07 08:25 52.23130 3.10643 35053 ft 489 kts 72°
2026-05-07 08:26 52.24389 3.27011 35049 ft 491 kts 98°
2026-05-07 08:26 52.23618 3.32424 35048 ft 491 kts 109°
2026-05-07 08:26 52.22382 3.37626 35046 ft 491 kts 111°
2026-05-07 08:27 52.19897 3.48009 35051 ft 492 kts 111°
2026-05-07 08:27 52.17414 3.58380 35042 ft 493 kts 111°
2026-05-07 08:28 52.14904 3.68785 35049 ft 493 kts 111°
2026-05-07 08:28 52.12377 3.79187 35058 ft 494 kts 112°
2026-05-07 08:29 52.09840 3.89583 35057 ft 495 kts 112°
2026-05-07 08:29 52.07287 3.99993 35066 ft 496 kts 112°
2026-05-07 08:30 52.04726 4.10393 35066 ft 496 kts 112°
2026-05-07 08:30 52.02151 4.20803 35072 ft 497 kts 112°
2026-05-07 08:31 51.99566 4.31203 35072 ft 497 kts 112°
2026-05-07 08:31 51.96971 4.41588 35080 ft 497 kts 112°
2026-05-07 08:32 51.94364 4.51973 35084 ft 497 kts 112°
2026-05-07 08:32 51.91753 4.62342 35077 ft 497 kts 112°
2026-05-07 08:33 51.89129 4.72700 35097 ft 497 kts 112°
2026-05-07 08:33 51.86499 4.83035 35078 ft 497 kts 112°
2026-05-07 08:34 51.83875 4.93294 35072 ft 497 kts 112°
2026-05-07 08:34 51.81211 5.03665 35070 ft 496 kts 113°
2026-05-07 08:35 51.78557 5.13959 35082 ft 496 kts 113°
2026-05-07 08:35 51.75904 5.24210 35082 ft 495 kts 113°
2026-05-07 08:36 51.73237 5.34445 35071 ft 495 kts 113°
2026-05-07 08:36 51.70562 5.44671 35063 ft 494 kts 113°
2026-05-07 08:37 51.67886 5.54857 35054 ft 494 kts 113°
2026-05-07 08:37 51.65201 5.65030 35052 ft 493 kts 113°
2026-05-07 08:38 51.62507 5.75195 35051 ft 493 kts 113°
2026-05-07 08:38 51.59811 5.85329 35048 ft 493 kts 113°
2026-05-07 08:39 51.57105 5.95447 35046 ft 492 kts 113°
2026-05-07 08:39 51.54391 6.05549 35044 ft 492 kts 114°
2026-05-07 08:40 51.51673 6.15633 35043 ft 492 kts 114°
2026-05-07 08:40 51.48982 6.25724 35040 ft 492 kts 112°
2026-05-07 08:41 51.46508 6.35953 35033 ft 492 kts 111°
2026-05-07 08:41 51.44030 6.46176 35034 ft 492 kts 112°
2026-05-07 08:42 51.41538 6.56280 34864 ft 488 kts 112°
2026-05-07 08:42 51.40275 6.61371 34616 ft 485 kts 112°
2026-05-07 08:42 51.39030 6.66378 34363 ft 482 kts 112°
2026-05-07 08:43 51.37790 6.71351 34115 ft 480 kts 112°
2026-05-07 08:43 51.36555 6.76297 33866 ft 477 kts 112°
2026-05-07 08:43 51.35338 6.81157 33621 ft 475 kts 112°
2026-05-07 08:43 51.34112 6.86045 33368 ft 473 kts 112°
2026-05-07 08:44 51.32887 6.90918 33120 ft 471 kts 112°
2026-05-07 08:44 51.31649 6.95822 32832 ft 469 kts 112°
2026-05-07 08:44 51.30443 7.00592 32228 ft 468 kts 112°
2026-05-07 08:44 51.29228 7.05401 31633 ft 465 kts 112°
2026-05-07 08:45 51.27899 7.10072 31048 ft 461 kts 120°
2026-05-07 08:45 51.26047 7.14208 30450 ft 456 kts 132°
2026-05-07 08:45 51.23706 7.17602 29866 ft 452 kts 144°
2026-05-07 08:45 51.21013 7.20124 29285 ft 448 kts 154°
2026-05-07 08:46 51.18201 7.22224 28709 ft 444 kts 155°
2026-05-07 08:46 51.15419 7.24258 28120 ft 439 kts 155°
2026-05-07 08:46 51.12661 7.26325 27542 ft 436 kts 154°
2026-05-07 08:46 51.09952 7.28425 26974 ft 431 kts 153°
2026-05-07 08:47 51.07291 7.30594 26384 ft 427 kts 153°
2026-05-07 08:47 51.04660 7.32776 25829 ft 424 kts 153°
2026-05-07 08:47 51.02068 7.34929 25248 ft 420 kts 153°
2026-05-07 08:47 50.99490 7.37065 24688 ft 416 kts 153°
2026-05-07 08:48 50.96932 7.39177 24124 ft 412 kts 153°
2026-05-07 08:48 50.94401 7.41259 23567 ft 408 kts 153°
2026-05-07 08:48 50.91890 7.43320 23007 ft 405 kts 153°
2026-05-07 08:48 50.89397 7.45364 22453 ft 402 kts 153°
2026-05-07 08:49 50.86925 7.47387 21899 ft 398 kts 153°
2026-05-07 08:49 50.84469 7.49394 21346 ft 395 kts 153°
2026-05-07 08:49 50.82033 7.51381 20778 ft 392 kts 153°
2026-05-07 08:49 50.79618 7.53350 20233 ft 389 kts 153°
2026-05-07 08:50 50.77223 7.55301 19685 ft 386 kts 153°
2026-05-07 08:50 50.75641 7.56589 19311 ft 385 kts 153°
2026-05-07 08:50 50.72473 7.59163 18587 ft 381 kts 153°
2026-05-07 08:50 50.70916 7.60427 18226 ft 379 kts 153°
2026-05-07 08:51 50.67790 7.62961 17555 ft 377 kts 153°
2026-05-07 08:51 50.66244 7.64214 17257 ft 378 kts 153°
2026-05-07 08:51 50.63917 7.66096 16798 ft 375 kts 153°
2026-05-07 08:51 50.61601 7.67968 16338 ft 373 kts 153°
2026-05-07 08:52 50.59311 7.69818 15878 ft 370 kts 153°
2026-05-07 08:52 50.57013 7.71672 15452 ft 369 kts 153°
2026-05-07 08:52 50.54737 7.73507 15029 ft 366 kts 153°
2026-05-07 08:52 50.52477 7.75325 14633 ft 364 kts 153°
2026-05-07 08:53 50.50229 7.77130 14208 ft 362 kts 154°
2026-05-07 08:53 50.47988 7.78927 13786 ft 360 kts 154°
2026-05-07 08:53 50.45764 7.80710 13385 ft 358 kts 154°
2026-05-07 08:53 50.43572 7.82560 12971 ft 358 kts 149°
2026-05-07 08:54 50.41583 7.84863 12639 ft 355 kts 141°
2026-05-07 08:54 50.39668 7.87294 12320 ft 354 kts 142°
2026-05-07 08:54 50.37832 7.89831 12037 ft 352 kts 130°
2026-05-07 08:54 50.36616 7.93143 11847 ft 353 kts 109°
2026-05-07 08:55 50.36088 7.96881 11598 ft 353 kts 99°
2026-05-07 08:55 50.35680 8.00673 11342 ft 351 kts 99°
2026-05-07 08:55 50.35270 8.04442 11096 ft 350 kts 99°
2026-05-07 08:55 50.34845 8.08183 10856 ft 349 kts 99°
2026-05-07 08:56 50.34409 8.11919 10598 ft 349 kts 100°
2026-05-07 08:56 50.33970 8.15611 10494 ft 340 kts 100°
2026-05-07 08:56 50.33540 8.19180 10378 ft 327 kts 100°
2026-05-07 08:56 50.33126 8.22600 10252 ft 314 kts 100°
2026-05-07 08:57 50.32730 8.25874 10100 ft 305 kts 100°
2026-05-07 08:57 50.32337 8.29124 9985 ft 301 kts 100°
2026-05-07 08:57 50.31945 8.32355 9999 ft 302 kts 100°
2026-05-07 08:57 50.31551 8.35590 9990 ft 303 kts 100°
2026-05-07 08:58 50.31158 8.38831 9988 ft 303 kts 100°
2026-05-07 08:58 50.30763 8.42071 9989 ft 303 kts 100°
2026-05-07 08:58 50.30367 8.45303 9989 ft 302 kts 100°
2026-05-07 08:58 50.29970 8.48530 9989 ft 302 kts 100°
2026-05-07 08:59 50.29573 8.51749 9990 ft 302 kts 100°
2026-05-07 08:59 50.29177 8.54980 9949 ft 303 kts 100°
2026-05-07 08:59 50.28777 8.58209 9826 ft 301 kts 100°
2026-05-07 08:59 50.28377 8.61418 9701 ft 301 kts 101°
2026-05-07 09:00 50.27977 8.64623 9573 ft 300 kts 100°
2026-05-07 09:00 50.27577 8.67829 9451 ft 299 kts 100°
2026-05-07 09:00 50.27179 8.71009 9223 ft 300 kts 100°
2026-05-07 09:00 50.26780 8.74205 8864 ft 298 kts 100°
2026-05-07 09:01 50.26382 8.77374 8495 ft 296 kts 100°
2026-05-07 09:01 50.25987 8.80527 8118 ft 294 kts 100°
2026-05-07 09:01 50.25593 8.83651 7743 ft 293 kts 101°
2026-05-07 09:01 50.24910 8.86611 7361 ft 290 kts 123°
2026-05-07 09:02 50.23509 8.88829 6956 ft 287 kts 150°
2026-05-07 09:02 50.21692 8.89997 6595 ft 283 kts 163°
2026-05-07 09:02 50.19832 8.90943 6127 ft 279 kts 163°
2026-05-07 09:02 50.18000 8.91870 5657 ft 275 kts 163°
2026-05-07 09:03 50.16181 8.92444 5343 ft 260 kts 184°
2026-05-07 09:03 50.14521 8.91744 5012 ft 241 kts 214°
2026-05-07 09:03 50.13242 8.90125 4699 ft 235 kts 224°
2026-05-07 09:03 50.12052 8.88464 4329 ft 230 kts 224°
2026-05-07 09:04 50.10998 8.86672 4073 ft 220 kts 237°
2026-05-07 09:04 50.10247 8.84604 3800 ft 212 kts 246°
2026-05-07 09:04 50.09689 8.82510 3554 ft 207 kts 250°
2026-05-07 09:04 50.09215 8.80522 3317 ft 187 kts 250°
2026-05-07 09:05 50.08767 8.78657 3050 ft 183 kts 251°
2026-05-07 09:05 50.08329 8.76809 2796 ft 181 kts 251°
2026-05-07 09:05 50.07911 8.75053 2564 ft 169 kts 251°
2026-05-07 09:05 50.07505 8.73350 2348 ft 167 kts 251°
2026-05-07 09:06 50.07102 8.71656 2127 ft 166 kts 251°
2026-05-07 09:06 50.06726 8.70063 1902 ft 146 kts 250°
2026-05-07 09:06 50.06380 8.68638 1722 ft 137 kts 251°
2026-05-07 09:06 50.06060 8.67268 1535 ft 134 kts 252°
2026-05-07 09:07 50.05737 8.65919 1368 ft 133 kts 253°
2026-05-07 09:07 50.05422 8.64573 1205 ft 132 kts 255°
2026-05-07 09:07 50.05097 8.63233 1032 ft 132 kts 252°
2026-05-07 09:07 50.04757 8.61899 826 ft 133 kts 253°
2026-05-07 09:08 50.04458 8.60631 674 ft 131 kts 254°
2026-05-07 09:08 50.04147 8.59300 488 ft 133 kts 253°
2026-05-07 09:08 50.03850 8.58014 375 ft 127 kts 250°
2026-05-07 09:08 50.03604 8.56972 357 ft 90 kts 249°
2026-05-07 09:09 50.03422 8.56211 363 ft 58 kts 250°
2026-05-07 09:09 50.03331 8.55825 355 ft 27 kts 254°
2026-05-07 09:09 50.03311 8.55618 355 ft 12 kts 268°
2026-05-07 09:09 50.03316 8.55485 351 ft 10 kts 278°
2026-05-07 09:10 50.03329 8.55358 352 ft 14 kts 279°
2026-05-07 09:10 50.03334 8.55307 354 ft 4 kts 279°
2026-05-07 09:10 50.03343 8.55228 354 ft 10 kts 279°
2026-05-07 09:10 50.03350 8.55168 352 ft 6 kts 281°
2026-05-07 09:11 50.03356 8.55116 356 ft 2 kts 284°
2026-05-07 09:11 50.03363 8.55098 352 ft 2 kts 319°
2026-05-07 09:11 50.03370 8.55092 356 ft 2 kts 350°
2026-05-07 09:11 50.03385 8.55097 348 ft 3 kts 38°
2026-05-07 09:12 50.03419 8.55160 357 ft 13 kts 66°
2026-05-07 09:12 50.03456 8.55320 357 ft 16 kts 69°
2026-05-07 09:12 50.03495 8.55482 359 ft 12 kts 69°
2026-05-07 09:12 50.03530 8.55628 356 ft 16 kts 69°
2026-05-07 09:13 50.03572 8.55805 358 ft 18 kts 70°
2026-05-07 09:13 50.03617 8.55998 362 ft 20 kts 70°
2026-05-07 09:13 50.03667 8.56204 365 ft 21 kts 69°
2026-05-07 09:13 50.03718 8.56414 362 ft 23 kts 69°
2026-05-07 09:14 50.03772 8.56638 361 ft 24 kts 69°
2026-05-07 09:14 50.03806 8.56781 365 ft 14 kts 70°
2026-05-07 09:14 50.03844 8.56945 362 ft 18 kts 70°
2026-05-07 09:14 50.03888 8.57130 366 ft 18 kts 69°
2026-05-07 09:15 50.03934 8.57318 370 ft 19 kts 69°
2026-05-07 09:15 50.03981 8.57515 372 ft 20 kts 69°
2026-05-07 09:15 50.04032 8.57728 376 ft 22 kts 69°
2026-05-07 09:15 50.04086 8.57956 375 ft 23 kts 69°
2026-05-07 09:16 50.04142 8.58192 376 ft 24 kts 69°
2026-05-07 09:16 50.04201 8.58436 376 ft 24 kts 69°
2026-05-07 09:16 50.04261 8.58684 377 ft 25 kts 69°
2026-05-07 09:16 50.04319 8.58927 380 ft 23 kts 69°
2026-05-07 09:17 50.04370 8.59137 382 ft 22 kts 69°
2026-05-07 09:17 50.04417 8.59334 381 ft 15 kts 69°
2026-05-07 09:17 50.04457 8.59449 380 ft 10 kts 35°
2026-05-07 09:17 50.04507 8.59469 379 ft 1 kts
2026-05-07 09:18 50.04543 8.59469 379 ft 9 kts
2026-05-07 09:18 50.04618 8.59464 378 ft 12 kts 356°
2026-05-07 09:18 50.04679 8.59449 377 ft 7 kts 347°
2026-05-07 09:18 50.04736 8.59421 377 ft 9 kts 340°
2026-05-07 09:19 50.04742 8.59418 377 ft 2 kts 339°
2026-05-07 09:19 50.04788 8.59391 377 ft 11 kts 340°
2026-05-07 09:19 50.04875 8.59369 378 ft 13 kts
2026-05-07 09:19 50.04981 8.59347 376 ft 15 kts 339°
2026-05-07 09:20 50.05056 8.59289 374 ft 12 kts 311°
2026-05-07 09:20 50.05063 8.59140 365 ft 17 kts 252°
2026-05-07 09:20 50.05016 8.58940 367 ft 22 kts 249°
2026-05-07 09:20 50.04974 8.58768 370 ft 11 kts 250°
2026-05-07 09:21 50.04939 8.58621 371 ft 17 kts 250°
2026-05-07 09:21 50.04893 8.58428 368 ft 12 kts 248°
2026-05-07 09:21 50.04882 8.58387 368 ft 6 kts 248°
2026-05-07 09:21 50.04865 8.58308 369 ft 9 kts 262°
2026-05-07 09:22 50.04874 8.58239 367 ft 8 kts 305°
2026-05-07 09:22 50.04888 8.58213 368 ft 5 kts 327°
2026-05-07 09:22 50.04897 8.58205 370 ft 2 kts 336°
2026-05-07 09:22 50.04912 8.58195 369 ft 1 kts 337°
2026-05-07 09:23 50.04920 8.58190 368 ft 0 kts 338°
2026-05-07 09:23 50.04925 8.58187 364 ft 1 kts 337°
2026-05-07 09:23 50.04927 8.58185 364 ft 0 kts 339°
2026-05-07 09:23 50.04928 8.58185 364 ft 0 kts 339°